FW4370 Weather Reports


Display with metric or nautical units.
time (UTC)temp
F
wind
direction
speed
MPH
gust
MPH
rain 1hr
in
rain 24hr
in
rain mn
in
humidity
%
barometer
mb
20260904210040 82 219 9.0 18.0 0.00 0.00 0.00 34 1006.4
20260904204532 82 236 9.0 18.0 0.00 0.00 0.00 35 1006.6
20260904203032 81 269 9.0 21.0 0.00 0.00 0.00 35 1006.5
20260904201527 82 226 8.0 23.0 0.00 0.00 0.00 36 1006.6
20260904200030 80 238 8.0 19.0 0.00 0.00 0.00 36 1006.8
20260904194523 80 204 6.0 20.0 0.00 0.00 0.00 37 1006.8
20260904193025 82 213 6.0 20.0 0.00 0.00 0.00 37 1007.0
20260904191520 82 191 4.0 16.0 0.00 0.00 0.00 38 1007.1
20260904190017 80 203 6.0 14.0 0.00 0.00 0.00 39 1007.3
20260904184521 80 194 4.0 16.0 0.00 0.00 0.00 39 1007.3
20260904183011 80 202 7.0 16.0 0.00 0.00 0.00 40 1007.5
20260904181508 80 240 7.0 14.0 0.00 0.00 0.00 40 1007.7
20260904180006 79 193 6.0 15.0 0.00 0.00 0.00 42 1007.9
20260904174503 79 274 7.0 18.0 0.00 0.00 0.00 43 1007.9
20260904173103 78 217 5.0 15.0 0.00 0.00 0.00 44 1007.9
20260904171600 78 197 5.0 15.0 0.00 0.00 0.00 46 1008.0
20260904170052 77 183 5.0 14.0 0.00 0.00 0.00 47 1007.8
20260904164549 77 229 9.0 17.0 0.00 0.00 0.00 49 1007.8
20260904163050 76 226 7.0 14.0 0.00 0.00 0.00 50 1007.7
20260904161540 75 212 7.0 17.0 0.00 0.00 0.00 51 1007.6
20260904160041 74 163 7.0 14.0 0.00 0.00 0.00 52 1007.7
20260904154533 74 138 7.0 13.0 0.00 0.00 0.00 53 1007.6
20260904153036 74 153 6.0 14.0 0.00 0.00 0.00 55 1007.5
20260904151525 73 212 7.0 15.0 0.00 0.00 0.00 57 1007.4
20260904150020 72 210 5.0 11.0 0.00 0.00 0.00 58 1007.5
20260904144514 71 158 4.0 12.0 0.00 0.00 0.00 59 1007.5
20260904143012 70 129 2.0 8.0 0.00 0.00 0.00 59 1007.2
20260904141504 69 170 4.0 10.0 0.00 0.00 0.00 60 1007.0
20260904140104 67 169 1.0 12.0 0.00 0.00 0.00 60 1006.9
20260904134558 66 129 1.0 5.0 0.00 0.00 0.00 60 1006.7
20260904133055 63 149 0.0 1.0 0.00 0.00 0.00 59 1006.7
20260904131617 62 122 1.0 3.0 0.00 0.00 0.00 58 1006.6
20260904130049 62 159 0.0 2.0 0.00 0.00 0.00 57 1006.4
20260904124550 62 222 0.0 4.0 0.00 0.00 0.00 57 1006.3
20260904123101 63 201 0.0 9.0 0.00 0.00 0.00 57 1006.0
20260904121540 63 177 1.0 10.0 0.00 0.00 0.00 56 1006.0
20260904120040 63 146 0.0 4.0 0.00 0.00 0.00 55 1006.1
20260904114543 63 205 0.0 3.0 0.00 0.00 0.00 54 1006.0
20260904113034 62 172 0.0 3.0 0.00 0.00 0.00 53 1006.0
20260904111533 62 118 0.0 1.0 0.00 0.00 0.00 52 1006.1
20260904110034 63 215 0.0 1.0 0.00 0.00 0.00 51 1006.0
20260904104523 63 144 0.0 3.0 0.00 0.00 0.00 50 1006.0
20260904103019 64 130 0.0 0.0 0.00 0.00 0.00 48 1005.9
20260904101520 63 226 2.0 7.0 0.00 0.00 0.00 47 1005.8
20260904100013 64 16 0.0 1.0 0.00 0.00 0.00 45 1005.8
20260904094509 65 221 0.0 1.0 0.00 0.00 0.00 44 1005.7
20260904093007 66 165 0.0 5.0 0.00 0.00 0.00 42 1005.8
20260904091505 67 140 0.0 2.0 0.00 0.00 0.00 40 1005.7
20260904090002 67 230 4.0 9.0 0.00 0.00 0.00 37 1005.8
20260904084602 65 209 0.0 4.0 0.00 0.00 0.00 35 1005.8
20260904083100 65 232 0.0 1.0 0.00 0.00 0.00 35 1005.9
20260904081552 67 232 0.0 3.0 0.00 0.00 0.00 36 1005.9
20260904080049 67 221 0.0 3.0 0.00 0.00 0.00 37 1005.9
20260904074557 67 230 0.0 3.0 0.00 0.00 0.00 39 1005.9
20260904073044 67 227 0.0 1.0 0.00 0.00 0.00 40 1006.0
20260904071539 67 222 0.0 2.0 0.00 0.00 0.00 41 1005.8
20260904070137 68 224 0.0 4.0 0.00 0.00 0.00 42 1005.8
20260904064534 68 243 2.0 5.0 0.00 0.00 0.00 43 1005.8
20260904063046 68 236 1.0 3.0 0.00 0.00 0.00 43 1005.7
20260904061532 69 223 0.0 4.0 0.00 0.00 0.00 43 1005.8
20260904060039 69 238 0.0 1.0 0.00 0.00 0.00 43 1005.6
20260904054527 71 236 1.0 4.0 0.00 0.00 0.00 42 1005.6
20260904053031 72 239 1.0 6.0 0.00 0.00 0.00 42 1005.6
20260904051524 73 222 0.0 7.0 0.00 0.00 0.00 42 1005.7
20260904050021 73 242 4.0 10.0 0.00 0.00 0.00 42 1005.7
20260904044530 73 226 3.0 10.0 0.00 0.00 0.00 41 1005.7
20260904043015 73 233 3.0 8.0 0.00 0.00 0.00 40 1005.6
20260904041513 73 200 3.0 9.0 0.00 0.00 0.00 40 1005.6
20260904040011 73 201 2.0 12.0 0.00 0.00 0.00 40 1005.4
20260904034508 73 232 4.0 11.0 0.00 0.00 0.00 39 1005.3
20260904033006 72 205 3.0 8.0 0.00 0.00 0.00 39 1005.2
20260904031504 72 231 2.0 6.0 0.00 0.00 0.00 38 1005.1
20260904030003 72 212 0.0 1.0 0.00 0.00 0.00 36 1004.9
20260904024501 73 242 0.0 3.0 0.00 0.00 0.00 36 1004.7
20260904023159 74 223 2.0 8.0 0.00 0.00 0.00 35 1004.6
20260904021557 75 197 3.0 9.0 0.00 0.00 0.00 34 1004.3
20260904020056 75 185 4.0 12.0 0.00 0.00 0.00 34 1004.3
20260904014553 76 186 5.0 11.0 0.00 0.00 0.00 33 1004.4
20260904013051 78 182 3.0 13.0 0.00 0.00 0.00 33 1004.1
20260904011550 79 191 6.0 12.0 0.00 0.00 0.00 34 1004.1
20260904010053 79 214 8.0 13.0 0.00 0.00 0.00 34 1004.2
20260904004557 80 225 6.0 13.0 0.00 0.00 0.00 35 1004.4
20260904003042 79 246 5.0 15.0 0.00 0.00 0.00 34 1004.5
20260904001540 79 224 8.0 17.0 0.00 0.00 0.00 34 1004.6
20260904000051 79 191 8.0 15.0 0.00 0.00 0.00 34 1004.5
20260903234542 81 229 8.0 17.0 0.00 0.00 0.00 33 1004.5
20260903233034 81 268 6.0 15.0 0.00 0.00 0.00 33 1004.4
20260903231533 82 173 6.0 17.0 0.00 0.00 0.00 33 1004.5
20260903230032 81 200 7.0 16.0 0.00 0.00 0.00 33 1004.6
20260903224528 82 239 9.0 18.0 0.00 0.00 0.00 33 1004.9
20260903223034 82 200 4.0 13.0 0.00 0.00 0.00 32 1004.9
20260903221520 82 207 8.0 22.0 0.00 0.00 0.00 32 1005.2
20260903220021 81 240 7.0 16.0 0.00 0.00 0.00 32 1005.4
20260903214515 81 236 5.0 16.0 0.00 0.00 0.00 32 1005.6
20260903213014 81 229 9.0 19.0 0.00 0.00 0.00 32 1005.7
20260903211526 81 215 9.0 17.0 0.00 0.00 0.00 32 1005.8